Regional Weather Roundup
Issued by NWS

Home | Current Version | Previous Version | Graphics & Text | Print | Product List | Glossary Off
Versions: 1 2 3 4 5 6 7 8 9 10 11 12 13 14 15 16 17 18 19 20 21 22 23 24 25 26 27 28 29 30 31 32 33 34 35 36 37 38 39 40 41 42 43 44 45 46 47 48 49 50

000
ASUS43 KMKX 131100
RWRWI

WISCONSIN REGIONAL WEATHER ROUNDUP
NATIONAL WEATHER SERVICE MILWAUKEE/SULLIVAN WI
600 AM CDT SUN JUL 13 2014

NOTE: "FAIR" INDICATES FEW OR NO CLOUDS BELOW 12,000 FEET WITH NO
SIGNIFICANT WEATHER AND/OR OBSTRUCTIONS TO VISIBILITY.

WIZ001-002-006>008-014>016-023>028-131200-
NORTHWEST WISCONSIN

CITY           SKY/WX    TMP DP  RH WIND       PRES   REMARKS
SUPERIOR ARPT  CLEAR     53  50  89 W6        29.89S
ASHLAND        CLEAR     52  50  93 SW6       29.89R
HAYWARD        CLEAR     56  53  90 CALM      29.92R
SIREN          CLEAR     54  52  94 CALM      29.93R
RICE LAKE      PTCLDY    58  55  88 W5        29.93R
LADYSMITH      PTCLDY    61  58  90 W9        29.91R
EAU CLAIRE     MOCLDY    63  63 100 W6        29.90R FOG
MENOMONIE      SUNNY     63  62  97 CALM      29.91R FOG
NEW RICHMOND   PTCLDY    58  57  96 CALM      29.94R
OSCEOLA        CLEAR     60  58  93 CALM      29.96R
$$

WIZ003>005-009-010-017-018-131200-
NORTH CENTRAL WISCONSIN

CITY           SKY/WX    TMP DP  RH WIND       PRES   REMARKS
WOODRUFF       CLOUDY    62  59  90 NW7       29.85R
RHINELANDER    CLOUDY    60  59  96 W6        29.87R
EAGLE RIVER    CLOUDY    60  59  97 W7        29.83S
LAND O LAKES   CLOUDY    60  55  81 NW6       29.84S
PHILLIPS       CLOUDY    59  58  98 W3        29.87R
TOMAHAWK       CLOUDY    60  59  96 W6        29.88R
MEDFORD        CLOUDY    62  61  97 W10       29.89R FOG
MERRILL        MOCLDY    62  62  99 W6        29.86R
$$

WIZ029-030-035-036-043>047-131200-
CENTRAL WISCONSIN

CITY           SKY/WX    TMP DP  RH WIND       PRES   REMARKS
WAUSAU         CLEAR     63  61  93 W9        29.86R
MOSINEE        CLOUDY    63  63 100 W8        29.89R FOG
MARSHFIELD     FOG       63  62  97 W6        29.89R VSB 1/2
STEVENS POINT  CLOUDY    62  60  95 W6        29.88S FOG
WAUPACA        CLOUDY    65  63  91 W9        29.88R
WAUTOMA        CLOUDY    64  63  94 W9        29.89S
WISC RAPIDS    CLOUDY    63  62  97 W7        29.90S FOG
CAMP DOUGLAS   NOT AVBL
$$

WIZ011>013-019>022-031-037>040-048>050-131200-
NORTHEAST WISCONSIN

CITY           SKY/WX    TMP DP  RH WIND       PRES   REMARKS
ANTIGO         CLOUDY    61  60  97 W10       29.86R
STURGEON BAY   PTCLDY    63  59  88 W12       29.82R
GREEN BAY      MOCLDY    63  61  93 SW6       29.85R
MANITOWOC      NOT AVBL
APPLETON       CLOUDY    63  61  94 W8        29.87S
CLINTONVILLE   PTCLDY    63  61  94 W9        29.85R
OSHKOSH        CLOUDY    64  62  93 W7        29.88R
$$

WIZ032>034-041-042-053>061-131200-
SOUTHWEST WISCONSIN

CITY           SKY/WX    TMP DP  RH WIND       PRES   REMARKS
LA CROSSE      CLEAR     64  63  96 S6        29.91S
SPARTA         MOCLDY    60  60  98 CALM      29.92R FOG
VIROQUA        CLOUDY    64  64 100 W5        29.95R VSB 1/4
BOSCOBEL       CLOUDY    66  64  93 SW5       29.94R
PRAIRIE DU CHI PTCLDY    64  62  93 W5        29.94F
PLATTEVILLE    CLOUDY    65  64  96 W7        29.97R
$$

WIZ056-057-062-063-064-067-068-131200-
SOUTH CENTRAL WISCONSIN

CITY           SKY/WX    TMP DP  RH WIND       PRES   REMARKS
BARABOO/DELLS  CLEAR     60  58  95 CALM      29.91S FOG
LONE ROCK      MOCLDY    68  64  87 W8        29.93S
WATERTOWN      CLOUDY    63  62  98 W6        29.91R
MADISON        CLOUDY    65  62  90 VRB3      29.92R
MIDDLETON      CLOUDY    65  65 100 W6        29.93S
MONROE         CLOUDY    63  61  94 W9        29.95R
JANESVILLE     CLOUDY    64  63  94 NW8       29.93R
$$

WIZ051-052-058>065-066-070>072-131200-
SOUTHEAST WISCONSIN

CITY           SKY/WX    TMP DP  RH WIND       PRES   REMARKS
MILWAUKEE      MOCLDY    65  62  90 W7        29.90R
WAUKESHA       CLOUDY    63  61  94 W12       29.92R FOG
MILWAUKEE/TIMM PTCLDY    63  59  88 W10       29.90R
RACINE         PTCLDY    65  63  93 W6        29.91R
BURLINGTON     MOCLDY    62  62  99 W5        29.91R
KENOSHA        PTCLDY    64  63  96 W6        29.90R
FOND DU LAC    MOCLDY    63  61  93 SW7       29.89R
SHEBOYGAN      CLEAR     63  61  93 W8        29.87R
WEST BEND      PTCLDY    63  59  88 W12       29.89R
JUNEAU         CLOUDY    63  48  59 SW6       29.92R HAZE
$$

LSZ147-162-131200-
LAKE SUPERIOR

STATION/POSITION TIME  TEMP    WIND        PRES    WAVE
                       AIR SEA DIR/SP/G            HT/PER
                 (UTC) (F)     (DEG/KT/KT) (MB)    (FT/S)
W MID LAKE BUOY  0950   45 38  280/ 14/ 14 1008.8R   1/ 3
PORT WING        1040   56     270/  9/ 12 1012.2R
SAXON HARBOR     1000          250/  3/  7 1011.2R
$$

LMZ867-665-643>646-131200-
LAKE MICHIGAN

STATION/POSITION TIME  TEMP    WIND        PRES    WAVE
                       AIR SEA DIR/SP/G            HT/PER
                 (UTC) (F)     (DEG/KT/KT) (MB)    (FT/S)
N MID LAKE BUOY  0950   61 58  240/ 12/ 12 1007.3F   1
NORTHPORT PIER   1000   64     270/  4/  9 1008.1S
SISTER BAY       0855   64     310/ 11/ 14   N/A
KEWAUNEE LAKESHO 1000   63     280/  6/  9 1010.7R
SHEBOYGAN LAKESH 1000   67     270/  6/  9 1010.9R
PORT WASHINGTON  1000   65     280/  6/ 12 1011.9R
MILWAUKEE LAKESH 1000   65     300/  8/ 11   N/A
S MID LAKE BUOY  0950   66 64  290/ 10/ 12 1010.9R   2/ 4
KENOSHA   LAKESH 1000   66     270/  5/ 10   N/A
$$

TC  - TEMPERATURE IN CELSIUS
VSB - VISIBILITY IN STATUTE MILES
WCI - WIND CHILL INDEX
HX  - HEAT INDEX




USA.gov is the U.S. government's official web portal to all federal, state and local government web resources and services.